Year,Month,Day,Hour,Minute,Value (Times are PST for temperature in C)
2010,08,02,10,19,18.90
2010,08,02,10,20,18.90
2010,08,02,10,21,19.00
2010,08,02,10,22,18.90
2010,08,02,10,23,19.00
2010,08,02,10,24,19.00
2010,08,02,10,25,19.10
2010,08,02,10,26,19.10
2010,08,02,10,27,19.20
2010,08,02,10,28,19.30
2010,08,02,10,29,19.40
2010,08,02,10,30,19.40
2010,08,02,10,31,19.50
2010,08,02,10,32,19.60
2010,08,02,10,33,19.60
2010,08,02,10,34,19.60
2010,08,02,10,35,19.60
2010,08,02,10,36,19.60
2010,08,02,10,37,19.60
2010,08,02,10,38,19.70
2010,08,02,10,39,19.80
2010,08,02,10,40,19.80
2010,08,02,10,41,19.80
2010,08,02,10,42,19.80
2010,08,02,10,43,19.80
2010,08,02,10,44,19.70
2010,08,02,10,45,19.70
2010,08,02,10,46,19.70
2010,08,02,10,47,19.70
2010,08,02,10,48,19.70
2010,08,02,10,49,19.80
2010,08,02,10,50,19.80
2010,08,02,10,51,19.70
2010,08,02,10,52,19.70
2010,08,02,10,53,19.70
2010,08,02,10,54,19.70
2010,08,02,10,55,19.70
2010,08,02,10,56,19.70
2010,08,02,10,57,19.80
2010,08,02,10,58,19.90
2010,08,02,10,59,19.90
2010,08,02,11,00,20.00
2010,08,02,11,01,20.10
2010,08,02,11,02,20.10
2010,08,02,11,03,20.20
2010,08,02,11,04,20.20
2010,08,02,11,05,20.30
2010,08,02,11,06,20.30
2010,08,02,11,07,20.30
2010,08,02,11,08,20.30
2010,08,02,11,09,20.30
2010,08,02,11,10,20.20
2010,08,02,11,11,20.20
2010,08,02,11,12,20.30
2010,08,02,11,13,20.30
2010,08,02,11,14,20.40
2010,08,02,11,15,20.40
2010,08,02,11,16,20.30
2010,08,02,11,17,20.30
2010,08,02,11,18,20.20
2010,08,02,11,19,20.20
2010,08,02,11,20,20.30
2010,08,02,11,21,20.30
2010,08,02,11,22,20.30
2010,08,02,11,23,20.40
2010,08,02,11,24,20.40
2010,08,02,11,25,20.40
2010,08,02,11,26,20.50
2010,08,02,11,27,20.60
2010,08,02,11,28,20.60
2010,08,02,11,29,20.60
2010,08,02,11,30,20.60
2010,08,02,11,31,20.60
2010,08,02,11,32,20.60
2010,08,02,11,33,20.60
2010,08,02,11,34,20.70
2010,08,02,11,35,20.60
2010,08,02,11,36,20.60
2010,08,02,11,37,20.60
2010,08,02,11,38,20.50
2010,08,02,11,39,20.30
2010,08,02,11,40,20.30
2010,08,02,11,41,20.30
2010,08,02,11,42,20.30
2010,08,02,11,43,20.30
2010,08,02,11,44,20.40
2010,08,02,11,45,20.40
2010,08,02,11,46,20.50
2010,08,02,11,47,20.50
2010,08,02,11,48,20.40
2010,08,02,11,49,20.30
2010,08,02,11,50,20.30
2010,08,02,11,51,20.30
2010,08,02,11,52,20.40
2010,08,02,11,53,20.60
2010,08,02,11,54,20.80
2010,08,02,11,55,20.80
2010,08,02,11,56,20.80
2010,08,02,11,57,20.90
2010,08,02,11,58,21.00
2010,08,02,11,59,21.00
2010,08,02,12,00,20.90
2010,08,02,12,01,20.80
2010,08,02,12,02,20.80
2010,08,02,12,03,20.90
2010,08,02,12,04,20.90
2010,08,02,12,05,20.90
2010,08,02,12,06,20.90
2010,08,02,12,07,20.80
2010,08,02,12,08,20.70
2010,08,02,12,09,20.70
2010,08,02,12,10,20.70
2010,08,02,12,11,20.70
2010,08,02,12,12,20.70
2010,08,02,12,13,20.70
2010,08,02,12,14,20.70
2010,08,02,12,15,20.60
2010,08,02,12,16,20.60
2010,08,02,12,17,20.70
2010,08,02,12,18,20.70
2010,08,02,12,19,20.70
2010,08,02,12,20,20.80
2010,08,02,12,21,20.90
2010,08,02,12,22,21.00
2010,08,02,12,23,21.10
2010,08,02,12,24,21.10
2010,08,02,12,25,21.10
2010,08,02,12,26,21.00
2010,08,02,12,27,20.90
2010,08,02,12,28,21.00
2010,08,02,12,29,21.00
2010,08,02,12,30,20.90
2010,08,02,12,31,21.00
2010,08,02,12,32,21.00
2010,08,02,12,33,20.90
2010,08,02,12,34,20.90
2010,08,02,12,35,21.00
2010,08,02,12,36,21.00
2010,08,02,12,37,21.10
2010,08,02,12,38,21.00
2010,08,02,12,39,21.10
2010,08,02,12,40,21.20
2010,08,02,12,41,21.30
2010,08,02,12,42,21.40
2010,08,02,12,43,21.40
2010,08,02,12,44,21.40
2010,08,02,12,45,21.30
2010,08,02,12,46,21.30
2010,08,02,12,47,21.30
2010,08,02,12,48,21.20
2010,08,02,12,49,21.20
2010,08,02,12,50,21.20
2010,08,02,12,51,21.30
2010,08,02,12,52,21.40
2010,08,02,12,53,21.40
2010,08,02,12,54,21.40
2010,08,02,12,55,21.50
2010,08,02,12,56,21.60
2010,08,02,12,57,21.60
2010,08,02,12,58,21.70
2010,08,02,12,59,21.70
2010,08,02,13,00,21.60
2010,08,02,13,01,21.50
2010,08,02,13,02,21.50
2010,08,02,13,03,21.50
2010,08,02,13,04,21.50
2010,08,02,13,05,21.40
2010,08,02,13,06,21.40
2010,08,02,13,07,21.40
2010,08,02,13,08,21.30
2010,08,02,13,09,21.30
2010,08,02,13,10,21.30
2010,08,02,13,11,21.30
2010,08,02,13,12,21.40
2010,08,02,13,13,21.40
2010,08,02,13,14,21.40
2010,08,02,13,15,21.40
2010,08,02,13,16,21.40
2010,08,02,13,17,21.40
2010,08,02,13,18,21.40
2010,08,02,13,19,21.40
2010,08,02,13,20,21.50
2010,08,02,13,21,21.50
2010,08,02,13,22,21.40
2010,08,02,13,23,21.50
2010,08,02,13,24,21.50
2010,08,02,13,25,21.60
2010,08,02,13,26,21.60
2010,08,02,13,27,21.50
2010,08,02,13,28,21.50
2010,08,02,13,29,21.40
2010,08,02,13,30,21.30
2010,08,02,13,31,21.30
2010,08,02,13,32,21.20
2010,08,02,13,33,21.20
2010,08,02,13,34,21.20
2010,08,02,13,35,21.20
2010,08,02,13,36,21.20
2010,08,02,13,37,21.20
2010,08,02,13,38,21.20
2010,08,02,13,39,21.20
2010,08,02,13,40,21.20
2010,08,02,13,41,21.20
2010,08,02,13,42,21.20
2010,08,02,13,43,21.30
2010,08,02,13,44,21.30
2010,08,02,13,45,21.30
2010,08,02,13,46,21.30
2010,08,02,13,47,21.20
2010,08,02,13,48,21.10
2010,08,02,13,49,21.20
2010,08,02,13,50,21.20
2010,08,02,13,51,21.20
2010,08,02,13,52,21.10
2010,08,02,13,53,21.10
2010,08,02,13,54,21.20
2010,08,02,13,55,21.30
2010,08,02,13,56,21.50
2010,08,02,13,57,21.60
2010,08,02,13,58,21.50
2010,08,02,13,59,21.50
2010,08,02,14,00,21.50
2010,08,02,14,01,21.50
2010,08,02,14,02,21.40
2010,08,02,14,03,21.40
2010,08,02,14,04,21.50
2010,08,02,14,05,21.60
2010,08,02,14,06,21.60
2010,08,02,14,07,21.60
2010,08,02,14,08,21.70
2010,08,02,14,09,21.70
2010,08,02,14,10,21.70
2010,08,02,14,11,21.70
2010,08,02,14,12,21.60
2010,08,02,14,13,21.60
2010,08,02,14,14,21.70
2010,08,02,14,15,21.60
2010,08,02,14,16,21.40
2010,08,02,14,17,21.40
2010,08,02,14,18,21.40
2010,08,02,14,19,21.40
2010,08,02,14,20,21.40
2010,08,02,14,21,21.40
2010,08,02,14,22,21.30
2010,08,02,14,23,21.20
2010,08,02,14,24,21.20
2010,08,02,14,25,21.20
2010,08,02,14,26,21.20
2010,08,02,14,27,21.20
2010,08,02,14,28,21.20
2010,08,02,14,29,21.20
2010,08,02,14,30,21.20
2010,08,02,14,31,21.10
2010,08,02,14,32,21.10
2010,08,02,14,33,21.10
2010,08,02,14,34,21.10
2010,08,02,14,35,21.10
2010,08,02,14,36,21.20
2010,08,02,14,37,21.30
2010,08,02,14,38,21.40
2010,08,02,14,39,21.40
2010,08,02,14,40,21.40
2010,08,02,14,41,21.30
2010,08,02,14,42,21.40
2010,08,02,14,43,21.40
2010,08,02,14,44,21.50
2010,08,02,14,45,21.50
2010,08,02,14,46,21.60
2010,08,02,14,47,21.60
2010,08,02,14,48,21.70
2010,08,02,14,49,21.80
2010,08,02,14,50,21.80
2010,08,02,14,51,21.80
2010,08,02,14,52,21.90
2010,08,02,14,53,21.90
2010,08,02,14,54,21.90
2010,08,02,14,55,21.80
2010,08,02,14,56,21.80
2010,08,02,14,57,21.80
2010,08,02,14,58,21.80
2010,08,02,14,59,21.90
2010,08,02,15,00,21.90
2010,08,02,15,01,22.00
2010,08,02,15,02,22.10
2010,08,02,15,03,22.10
2010,08,02,15,04,22.20
2010,08,02,15,05,22.20
2010,08,02,15,06,22.20
2010,08,02,15,07,22.30
2010,08,02,15,08,22.30
2010,08,02,15,09,22.40
2010,08,02,15,10,22.40
2010,08,02,15,11,22.50
2010,08,02,15,12,22.60
2010,08,02,15,13,22.60
2010,08,02,15,14,22.70
2010,08,02,15,15,22.80
2010,08,02,15,16,22.80
2010,08,02,15,17,22.80
2010,08,02,15,18,22.80
2010,08,02,15,19,22.70
2010,08,02,15,20,22.60
2010,08,02,15,21,22.60
2010,08,02,15,22,22.50
2010,08,02,15,23,22.50
2010,08,02,15,24,22.60
2010,08,02,15,25,22.60
2010,08,02,15,26,22.60
2010,08,02,15,27,22.60
2010,08,02,15,28,22.60
2010,08,02,15,29,22.60
2010,08,02,15,30,22.60
2010,08,02,15,31,22.60
2010,08,02,15,32,22.60
2010,08,02,15,33,22.60
2010,08,02,15,34,22.60
2010,08,02,15,35,22.60
2010,08,02,15,36,22.50
2010,08,02,15,37,22.40
2010,08,02,15,38,22.40
2010,08,02,15,39,22.50
2010,08,02,15,40,22.50
2010,08,02,15,41,22.50
2010,08,02,15,42,22.40
2010,08,02,15,43,22.40
2010,08,02,15,44,22.40
2010,08,02,15,45,22.40
2010,08,02,15,46,22.40
2010,08,02,15,47,22.40
2010,08,02,15,48,22.50
2010,08,02,15,49,22.60
2010,08,02,15,50,22.70
2010,08,02,15,51,22.70
2010,08,02,15,52,22.70
2010,08,02,15,53,22.70
2010,08,02,15,54,22.70
2010,08,02,15,55,22.60
2010,08,02,15,56,22.60
2010,08,02,15,57,22.60
2010,08,02,15,58,22.60
2010,08,02,15,59,22.60
2010,08,02,16,00,22.50
2010,08,02,16,01,22.40
2010,08,02,16,02,22.40
2010,08,02,16,03,22.40
2010,08,02,16,04,22.40
2010,08,02,16,05,22.40
2010,08,02,16,06,22.50
2010,08,02,16,07,22.60
2010,08,02,16,08,22.70
2010,08,02,16,09,22.80
2010,08,02,16,10,22.90
2010,08,02,16,11,22.90
2010,08,02,16,12,23.10
2010,08,02,16,13,23.20
2010,08,02,16,14,23.20
2010,08,02,16,15,23.20
2010,08,02,16,16,23.30
2010,08,02,16,17,23.30
2010,08,02,16,18,23.30
2010,08,02,16,19,23.30
2010,08,02,16,20,23.30
2010,08,02,16,21,23.30
2010,08,02,16,22,23.20
2010,08,02,16,23,23.10
2010,08,02,16,24,23.10
2010,08,02,16,25,23.10
2010,08,02,16,26,23.10
2010,08,02,16,27,23.10
2010,08,02,16,28,23.20
2010,08,02,16,29,23.20
2010,08,02,16,30,23.10
2010,08,02,16,31,23.10
2010,08,02,16,32,23.10
2010,08,02,16,33,23.20
2010,08,02,16,34,23.30
2010,08,02,16,35,23.30
2010,08,02,16,36,23.30
2010,08,02,16,37,23.30
2010,08,02,16,38,23.30
2010,08,02,16,39,23.30
2010,08,02,16,40,23.40
2010,08,02,16,41,23.40
2010,08,02,16,42,23.40
2010,08,02,16,43,23.40
2010,08,02,16,44,23.30
2010,08,02,16,45,23.30
2010,08,02,16,46,23.30
2010,08,02,16,47,23.40
2010,08,02,16,48,23.40
2010,08,02,16,49,23.40
2010,08,02,16,50,23.30
2010,08,02,16,51,23.30
2010,08,02,16,52,23.30
2010,08,02,16,53,23.30
2010,08,02,16,54,23.30
2010,08,02,16,55,23.30
2010,08,02,16,56,23.20
2010,08,02,16,57,23.20
2010,08,02,16,58,23.20
2010,08,02,16,59,23.30
2010,08,02,17,00,23.20
2010,08,02,17,01,23.20
2010,08,02,17,02,23.20
2010,08,02,17,03,23.20
2010,08,02,17,04,23.10
2010,08,02,17,05,23.20
2010,08,02,17,06,23.20
2010,08,02,17,07,23.20
2010,08,02,17,08,23.10
2010,08,02,17,09,23.10
2010,08,02,17,10,23.00
2010,08,02,17,11,22.90
2010,08,02,17,12,22.90
2010,08,02,17,13,22.80
2010,08,02,17,14,22.80
2010,08,02,17,15,22.90
2010,08,02,17,16,22.90
2010,08,02,17,17,22.90
2010,08,02,17,18,22.90
2010,08,02,17,19,22.90
2010,08,02,17,20,23.00
2010,08,02,17,21,23.10
2010,08,02,17,22,23.20
2010,08,02,17,23,23.20
2010,08,02,17,24,23.20
2010,08,02,17,25,23.10
2010,08,02,17,26,23.00
2010,08,02,17,27,22.90
2010,08,02,17,28,23.00
2010,08,02,17,29,22.90
2010,08,02,17,30,22.90
2010,08,02,17,31,22.90
2010,08,02,17,32,22.90
2010,08,02,17,33,22.90
2010,08,02,17,34,23.00
2010,08,02,17,35,23.00
2010,08,02,17,36,23.00
2010,08,02,17,37,23.00
2010,08,02,17,38,23.00
2010,08,02,17,39,23.00
2010,08,02,17,40,23.10
2010,08,02,17,41,23.10
2010,08,02,17,42,23.20
2010,08,02,17,43,23.30
2010,08,02,17,44,23.30
2010,08,02,17,45,23.30
2010,08,02,17,46,23.30
2010,08,02,17,47,23.30
2010,08,02,17,48,23.20
2010,08,02,17,49,23.20
2010,08,02,17,50,23.20
2010,08,02,17,51,23.20
2010,08,02,17,52,23.20
2010,08,02,17,53,23.20
2010,08,02,17,54,23.20
2010,08,02,17,55,23.10
2010,08,02,17,56,23.00
2010,08,02,17,57,22.90
2010,08,02,17,58,22.80
2010,08,02,17,59,22.80
2010,08,02,18,00,22.80
2010,08,02,18,01,22.80
2010,08,02,18,02,22.80
2010,08,02,18,03,22.80
2010,08,02,18,04,22.80
2010,08,02,18,05,22.80
2010,08,02,18,06,22.90
2010,08,02,18,07,22.90
2010,08,02,18,08,23.00
2010,08,02,18,09,23.00
2010,08,02,18,10,23.00
2010,08,02,18,11,22.90
2010,08,02,18,12,22.90
2010,08,02,18,13,22.90
2010,08,02,18,14,23.00
2010,08,02,18,15,23.00
2010,08,02,18,16,23.00
2010,08,02,18,17,22.90
2010,08,02,18,18,22.90
2010,08,02,18,19,22.80
2010,08,02,18,20,22.80
2010,08,02,18,21,22.70
2010,08,02,18,22,22.80
2010,08,02,18,23,22.80
2010,08,02,18,24,22.80
2010,08,02,18,25,22.80
2010,08,02,18,26,22.80
2010,08,02,18,27,22.80
2010,08,02,18,28,22.80
2010,08,02,18,29,22.70
2010,08,02,18,30,22.70
2010,08,02,18,31,22.80
2010,08,02,18,32,22.70
2010,08,02,18,33,22.70
2010,08,02,18,34,22.70
2010,08,02,18,35,22.60
2010,08,02,18,36,22.60
2010,08,02,18,37,22.70
2010,08,02,18,38,22.70
2010,08,02,18,39,22.60
2010,08,02,18,40,22.60
2010,08,02,18,41,22.60
2010,08,02,18,42,22.50
2010,08,02,18,43,22.40
2010,08,02,18,44,22.40
2010,08,02,18,45,22.30
2010,08,02,18,46,22.30
2010,08,02,18,47,22.30
2010,08,02,18,48,22.30
2010,08,02,18,49,22.30
2010,08,02,18,50,22.30
2010,08,02,18,51,22.30
2010,08,02,18,52,22.40
2010,08,02,18,53,22.40
2010,08,02,18,54,22.40
2010,08,02,18,55,22.40
2010,08,02,18,56,22.40
2010,08,02,18,57,22.40
2010,08,02,18,58,22.40
2010,08,02,18,59,22.40
2010,08,02,19,00,22.40
2010,08,02,19,01,22.30
2010,08,02,19,02,22.30
2010,08,02,19,03,22.30
2010,08,02,19,04,22.30
2010,08,02,19,05,22.30
2010,08,02,19,06,22.20
2010,08,02,19,07,22.20
2010,08,02,19,08,22.20
2010,08,02,19,09,22.30
2010,08,02,19,10,22.20
2010,08,02,19,11,22.20
2010,08,02,19,12,22.20
2010,08,02,19,13,22.10
2010,08,02,19,14,22.10
2010,08,02,19,15,22.00
2010,08,02,19,16,21.90
2010,08,02,19,17,21.80
2010,08,02,19,18,21.80
2010,08,02,19,19,21.70
2010,08,02,19,20,21.70
2010,08,02,19,21,21.60
2010,08,02,19,22,21.60
2010,08,02,19,23,21.50
2010,08,02,19,24,21.50
2010,08,02,19,25,21.40
2010,08,02,19,26,21.40
2010,08,02,19,27,21.30
2010,08,02,19,28,21.30
2010,08,02,19,29,21.30
2010,08,02,19,30,21.30
2010,08,02,19,31,21.30
2010,08,02,19,32,21.20
2010,08,02,19,33,21.20
2010,08,02,19,34,21.20
2010,08,02,19,35,21.20
2010,08,02,19,36,21.10
2010,08,02,19,37,21.10
2010,08,02,19,38,21.10
2010,08,02,19,39,21.10
2010,08,02,19,40,21.10
2010,08,02,19,41,21.00
2010,08,02,19,42,21.00
2010,08,02,19,43,21.00
2010,08,02,19,44,21.00
2010,08,02,19,45,21.00
2010,08,02,19,46,21.00
2010,08,02,19,47,21.00
2010,08,02,19,48,21.00
2010,08,02,19,49,20.90
2010,08,02,19,50,20.90
2010,08,02,19,51,20.90
2010,08,02,19,52,20.90
2010,08,02,19,53,20.90
2010,08,02,19,54,20.90
2010,08,02,19,55,20.90
2010,08,02,19,56,20.80
2010,08,02,19,57,20.80
2010,08,02,19,58,20.90
2010,08,02,19,59,20.90
2010,08,02,20,00,20.80
2010,08,02,20,01,20.80
2010,08,02,20,02,20.80
2010,08,02,20,03,20.80
2010,08,02,20,04,20.80
2010,08,02,20,05,20.80
2010,08,02,20,06,20.80
2010,08,02,20,07,20.80
2010,08,02,20,08,20.80
2010,08,02,20,09,20.80
2010,08,02,20,10,20.80
2010,08,02,20,11,20.80
2010,08,02,20,12,20.80
2010,08,02,20,13,20.70
2010,08,02,20,14,20.70
2010,08,02,20,15,20.70
2010,08,02,20,16,20.70
2010,08,02,20,17,20.70
2010,08,02,20,18,20.70
2010,08,02,20,19,20.70
2010,08,02,20,20,20.60
2010,08,02,20,21,20.60
2010,08,02,20,22,20.60
2010,08,02,20,23,20.60
2010,08,02,20,24,20.60
2010,08,02,20,25,20.60
2010,08,02,20,26,20.60
2010,08,02,20,27,20.50
2010,08,02,20,28,20.50
2010,08,02,20,29,20.50
2010,08,02,20,30,20.50
2010,08,02,20,31,20.50
2010,08,02,20,32,20.60
2010,08,02,20,33,20.50
2010,08,02,20,34,20.60
2010,08,02,20,35,20.60
2010,08,02,20,36,20.60
2010,08,02,20,37,20.50
2010,08,02,20,38,20.50
2010,08,02,20,39,20.50
2010,08,02,20,40,20.50
2010,08,02,20,41,20.50
2010,08,02,20,42,20.50
2010,08,02,20,43,20.50
2010,08,02,20,44,20.40
2010,08,02,20,45,20.40
2010,08,02,20,46,20.40
2010,08,02,20,47,20.40
2010,08,02,20,48,20.40
2010,08,02,20,49,20.40
2010,08,02,20,50,20.30
2010,08,02,20,51,20.30
2010,08,02,20,52,20.30
2010,08,02,20,53,20.30
2010,08,02,20,54,20.20
2010,08,02,20,55,20.20
2010,08,02,20,56,20.20
2010,08,02,20,57,20.10
2010,08,02,20,58,20.10
2010,08,02,20,59,20.00
2010,08,02,21,00,20.00
2010,08,02,21,01,20.00
2010,08,02,21,02,19.90
2010,08,02,21,03,19.90
2010,08,02,21,04,19.90
2010,08,02,21,05,19.80
2010,08,02,21,06,19.80
2010,08,02,21,07,19.80
2010,08,02,21,08,19.80
2010,08,02,21,09,19.70
2010,08,02,21,10,19.70
2010,08,02,21,11,19.70
2010,08,02,21,12,19.60
2010,08,02,21,13,19.60
2010,08,02,21,14,19.60
2010,08,02,21,15,19.60
2010,08,02,21,16,19.50
2010,08,02,21,17,19.50
2010,08,02,21,18,19.40
2010,08,02,21,19,19.40
2010,08,02,21,20,19.40
2010,08,02,21,21,19.40
2010,08,02,21,22,19.40
2010,08,02,21,23,19.40
2010,08,02,21,24,19.40
2010,08,02,21,25,19.30
2010,08,02,21,26,19.30
2010,08,02,21,27,19.30
2010,08,02,21,28,19.30
2010,08,02,21,29,19.30
2010,08,02,21,30,19.20
2010,08,02,21,31,19.20
2010,08,02,21,32,19.20
2010,08,02,21,33,19.10
2010,08,02,21,34,19.10
2010,08,02,21,35,19.10
2010,08,02,21,36,19.10
2010,08,02,21,37,19.10
2010,08,02,21,38,19.10
2010,08,02,21,39,19.10
2010,08,02,21,40,19.10
2010,08,02,21,41,19.10
2010,08,02,21,42,19.10
2010,08,02,21,43,19.10
